DW9080 Weather Reports


time (UTC)temp
C
wind
direction
speed
KPH
gust
KPH
rain 1hr
cm
rain 24hr
cm
rain mn
cm
humidity
%
barometer
mb
20260831085022 14 223 0.0 0.0 0.00 0.15 0.15 95 1010.6
20260831084622 15 223 0.0 0.0 0.00 0.15 0.15 95 1010.6
20260831084018 15 224 0.0 0.0 0.00 0.15 0.15 96 1010.6
20260831083518 15 224 0.0 0.0 0.00 0.15 0.15 96 1010.6
20260831083018 15 225 0.0 0.0 0.00 0.15 0.15 96 1010.7
20260831082517 15 225 0.0 0.0 0.00 0.15 0.15 96 1010.7
20260831082101 15 224 0.0 0.0 0.00 0.15 0.15 95 1010.8
20260831081633 15 225 0.0 0.0 0.00 0.15 0.15 95 1010.8
20260831081059 15 225 0.0 0.0 0.00 0.15 0.15 95 1010.7
20260831080559 15 225 0.0 0.0 0.00 0.15 0.15 95 1010.6
20260831080100 15 225 0.0 0.0 0.00 0.15 0.15 95 1010.7
20260831075559 15 224 0.0 0.0 0.00 0.15 0.15 95 1010.7
20260831075042 15 225 0.0 0.0 0.00 0.15 0.15 95 1010.9
20260831074546 15 225 0.0 0.0 0.00 0.15 0.15 95 1011.0
20260831074042 15 225 0.0 0.0 0.00 0.15 0.15 95 1010.9
20260831073542 15 224 0.0 0.0 0.00 0.15 0.15 95 1010.9
20260831073111 15 225 0.0 1.6 0.00 0.15 0.15 94 1011.0
20260831072541 15 228 0.0 1.6 0.00 0.15 0.15 95 1011.1
20260831072023 15 256 0.0 0.0 0.00 0.15 0.15 95 1011.1
20260831071523 15 256 0.0 0.0 0.00 0.15 0.15 94 1011.0
20260831071027 15 256 0.0 0.0 0.00 0.15 0.15 94 1010.9
20260831070523 15 256 0.0 0.0 0.00 0.15 0.15 94 1010.9
20260831070031 15 255 0.0 0.0 0.00 0.15 0.15 94 1011.0
20260831065524 15 256 0.0 0.0 0.00 0.15 0.15 94 1011.1
20260831065004 15 256 0.0 0.0 0.00 0.15 0.15 94 1011.3
20260831064514 15 256 0.0 0.0 0.00 0.15 0.15 94 1011.4
20260831064005 15 255 0.0 0.0 0.00 0.15 0.15 94 1011.5
20260831063504 15 256 0.0 0.0 0.00 0.15 0.15 94 1011.5
20260831063009 15 256 0.0 0.0 0.00 0.20 0.15 94 1011.5
20260831062503 15 63 0.0 0.0 0.03 0.20 0.15 93 1011.5
20260831062046 15 63 0.0 0.0 0.03 0.20 0.15 93 1011.5
20260831061550 15 62 0.0 0.0 0.03 0.20 0.15 93 1011.5
20260831061045 15 63 0.0 0.0 0.05 0.20 0.15 92 1011.6
20260831060544 15 63 0.0 0.0 0.08 0.20 0.15 93 1011.8
20260831060058 15 63 0.0 0.0 0.10 0.20 0.15 93 1011.9
20260831055544 15 63 0.0 0.0 0.10 0.20 0.15 92 1011.9
20260831055032 15 63 0.0 0.0 0.10 0.20 0.15 91 1011.8
20260831054538 15 61 0.0 0.0 0.10 0.20 0.15 92 1011.8
20260831054031 15 231 0.0 1.6 0.10 0.20 0.15 92 1011.8
20260831053531 15 200 0.0 1.6 0.10 0.20 0.15 91 1012.0
20260831053034 16 59 0.0 0.0 0.10 0.25 0.15 90 1011.9
20260831052529 16 60 0.0 0.0 0.08 0.23 0.15 88 1012.0
20260831052026 16 59 0.0 0.0 0.08 0.23 0.15 87 1012.0
20260831051528 16 233 0.0 1.6 0.08 0.23 0.15 85 1012.0
20260831051026 16 51 0.0 1.6 0.05 0.23 0.13 84 1012.0
20260831050529 16 63 0.0 1.6 0.03 0.18 0.08 82 1011.9
20260831050039 16 50 0.0 1.6 0.00 0.15 0.05 82 1011.9
20260831045526 17 52 0.0 1.6 0.00 0.15 0.05 81 1011.9
20260831045026 17 75 0.0 1.6 0.00 0.15 0.05 81 1011.8
20260831044526 17 49 0.0 3.2 0.00 0.15 0.05 82 1011.7
20260831044026 17 39 0.0 3.2 0.00 0.15 0.05 82 1011.7
20260831043525 17 67 0.0 1.6 0.00 0.15 0.05 82 1011.7
20260831043028 18 61 0.0 3.2 0.00 0.43 0.05 80 1011.7
20260831042525 18 89 0.0 8.0 0.00 0.43 0.05 77 1011.7
20260831042025 18 65 0.0 8.0 0.00 0.43 0.05 76 1011.7
20260831041529 18 134 0.0 6.4 0.00 0.43 0.05 75 1011.6
20260831041025 18 128 0.0 6.4 0.00 0.43 0.05 75 1011.6
20260831040525 18 355 0.0 1.6 0.00 0.43 0.05 76 1011.7
20260831040042 18 51 0.0 1.6 0.00 0.43 0.05 78 1011.5
20260831035524 18 64 0.0 1.6 0.00 0.43 0.05 77 1011.5
20260831035012 18 77 0.0 0.0 0.00 0.43 0.05 78 1011.5
20260831034512 18 134 0.0 0.0 0.00 0.43 0.05 79 1011.3
20260831034012 18 130 0.0 0.0 0.00 0.43 0.05 79 1011.2
20260831033512 18 129 0.0 0.0 0.00 0.43 0.05 79 1011.1
20260831033018 18 129 0.0 0.0 0.00 0.71 0.05 78 1010.9
20260831032512 18 129 0.0 0.0 0.00 0.71 0.05 78 1010.8
20260831032010 18 60 0.0 0.0 0.00 0.71 0.05 78 1010.6
20260831031511 18 61 0.0 0.0 0.00 0.71 0.05 77 1010.5
20260831031010 18 61 0.0 0.0 0.00 0.71 0.05 77 1010.5
20260831030510 18 61 0.0 0.0 0.00 0.71 0.05 77 1010.3
20260831030024 18 61 0.0 0.0 0.00 0.71 0.05 76 1010.2
20260831025510 18 63 0.0 0.0 0.00 0.71 0.05 75 1010.2
20260831025011 18 64 0.0 0.0 0.00 0.71 0.05 75 1010.2
20260831024510 18 27 0.0 0.0 0.00 0.71 0.05 74 1010.1
20260831024009 19 53 0.0 0.0 0.00 0.71 0.05 73 1010.0
20260831023513 19 27 0.0 0.0 0.00 0.71 0.05 72 1010.0
20260831023009 19 124 0.0 1.6 0.00 0.71 0.05 70 1010.0
20260831022509 19 120 0.0 1.6 0.00 0.71 0.05 71 1009.9
20260831022009 19 116 0.0 0.0 0.00 0.71 0.05 70 1009.7
20260831021508 18 101 0.0 0.0 0.00 0.71 0.05 71 1009.6
20260831021008 18 65 0.0 0.0 0.00 0.71 0.05 73 1009.4
20260831020509 18 132 0.0 1.6 0.00 0.71 0.05 73 1009.3
20260831020008 18 162 0.0 3.2 0.00 0.71 0.05 75 1009.1
20260831015507 18 167 0.0 3.2 0.00 0.71 0.05 76 1008.9
20260831015012 18 86 0.0 1.6 0.00 0.71 0.05 76 1008.6
20260831014505 18 58 0.0 1.6 0.00 0.71 0.05 75 1008.3
20260831014006 18 61 0.0 1.6 0.00 0.71 0.05 75 1008.2
20260831013505 18 56 0.0 1.6 0.00 0.71 0.05 77 1008.2
20260831013004 18 68 0.0 1.6 0.00 0.71 0.05 75 1008.1
20260831012504 18 63 0.0 1.6 0.00 0.71 0.05 75 1007.9
20260831012004 18 70 0.0 1.6 0.00 0.71 0.05 75 1007.8
20260831011546 18 49 0.0 1.6 0.00 0.71 0.05 75 1007.9
20260831011044 18 74 0.0 6.4 0.00 0.71 0.05 76 1008.0
20260831010545 19 63 0.0 6.4 0.00 0.71 0.05 76 1008.0
20260831010045 19 72 0.0 1.6 0.00 0.71 0.05 76 1008.1
20260831005545 19 88 0.0 0.0 0.00 0.71 0.05 75 1008.0
20260831005045 19 70 0.0 0.0 0.00 0.71 0.05 74 1008.1
20260831004528 19 69 0.0 0.0 0.00 0.71 0.05 74 1008.1
20260831004028 20 68 0.0 0.0 0.00 0.71 0.05 73 1008.1
20260831003628 20 63 0.0 1.6 0.00 0.71 0.05 72 1008.1
20260831003027 20 134 0.0 3.2 0.00 0.71 0.05 70 1008.2
20260831002527 20 52 0.0 3.2 0.00 0.71 0.05 69 1008.3
20260831002027 20 127 0.0 1.6 0.00 0.71 0.05 70 1008.4
20260831001516 20 60 0.0 1.6 0.00 0.71 0.05 70 1008.5
20260831001016 20 70 0.0 1.6 0.00 0.71 0.05 69 1008.6
20260831000516 20 77 0.0 16.1 0.00 0.71 0.05 69 1008.7
20260831000017 20 77 1.6 16.1 0.00 0.71 0.05 69 1008.6
20260830235515 21 73 0.0 3.2 0.00 0.71 0.05 67 1008.6
20260830235017 20 128 0.0 1.6 0.00 0.71 0.05 68 1008.5
20260830234515 21 65 0.0 1.6 0.00 0.71 0.05 68 1008.6
20260830234016 21 74 0.0 1.6 0.00 0.71 0.05 69 1008.5
20260830233518 21 66 0.0 1.6 0.00 0.71 0.05 67 1008.3
20260830233020 21 69 0.0 1.6 0.00 0.79 0.05 66 1008.2
20260830232515 21 60 0.0 1.6 0.00 0.79 0.05 68 1008.1
20260830232015 21 70 0.0 1.6 0.00 0.79 0.05 68 1008.0
20260830231514 21 51 0.0 1.6 0.00 0.79 0.05 66 1008.0
20260830231012 21 70 0.0 8.0 0.00 0.79 0.05 66 1008.1
20260830230513 21 61 0.0 9.7 0.00 0.79 0.05 65 1008.0
20260830230017 21 84 1.6 9.7 0.00 0.79 0.05 71 1007.9
20260830225513 21 71 0.0 3.2 0.05 0.79 0.05 73 1008.0
20260830225022 21 67 0.0 3.2 0.05 0.79 0.05 76 1008.0
20260830224512 21 74 0.0 0.0 0.05 0.79 0.05 75 1008.0
20260830224012 21 160 0.0 0.0 0.05 0.79 0.05 76 1007.9
20260830223613 20 139 0.0 0.0 0.05 0.79 0.05 75 1007.8
20260830223014 20 138 0.0 0.0 0.05 1.83 0.05 74 1007.9
20260830222511 20 139 0.0 0.0 0.05 1.83 0.05 72 1007.8
20260830222010 20 139 0.0 0.0 0.05 1.83 0.05 82 1008.0
20260830221600 19 139 0.0 1.6 0.05 1.83 0.05 81 1008.0
20260830221100 20 139 0.0 4.8 0.05 1.83 0.05 79 1008.2
20260830220558 20 148 0.0 0.0 0.05 1.83 0.05 81 1008.2
20260830220104 20 121 0.0 1.6 0.05 1.83 0.05 77 1008.3
20260830215558 21 76 0.0 1.6 0.03 1.80 0.03 73 1008.3
20260830215057 21 68 0.0 8.0 0.00 1.78 0.00 71 1008.3
20260830214559 22 89 3.2 8.0 0.00 1.78 0.00 63 1008.3
20260830214056 23 56 1.6 8.0 0.00 1.78 0.00 61 1008.2
20260830213556 24 49 0.0 1.6 0.00 1.78 0.00 58 1008.1
20260830213056 25 76 0.0 1.6 0.00 1.78 0.00 57 1008.1
20260830212558 24 248 0.0 1.6 0.00 1.78 0.00 55 1008.1
20260830212055 25 258 0.0 1.6 0.00 1.78 0.00 52 1008.1
20260830211555 25 243 0.0 1.6 0.00 1.78 0.00 50 1008.1
20260830211053 25 228 0.0 1.6 0.00 1.78 0.00 51 1008.3
20260830210554 26 267 0.0 0.0 0.00 1.78 0.00 53 1008.3
20260830210053 25 8 0.0 0.0 0.00 1.78 0.00 54 1008.4
20260830205551 25 239 0.0 0.0 0.00 1.78 0.00 54 1008.6
20260830205051 25 24 0.0 0.0 0.00 1.78 0.00 54 1008.6
20260830204558 25 347 0.0 1.6 0.00 1.78 0.00 54 1008.7
20260830204050 25 248 0.0 1.6 0.00 1.78 0.00 55 1008.7
20260830203549 25 239 0.0 1.6 0.00 1.78 0.00 52 1008.8
20260830203048 25 241 0.0 1.6 0.00 1.78 0.00 57 1008.9
20260830202551 25 246 0.0 1.6 0.00 1.78 0.00 57 1009.0
20260830202046 25 253 0.0 1.6 0.00 1.78 0.00 56 1009.2
20260830201527 25 270 0.0 1.6 0.00 1.78 0.00 57 1009.3
20260830201026 25 253 0.0 0.0 0.00 1.78 0.00 55 1009.5
20260830200526 25 305 0.0 0.0 0.00 1.78 0.00 56 1009.7
20260830200034 25 231 0.0 0.0 0.00 1.78 0.00 59 1009.8
20260830195524 25 280 0.0 1.6 0.00 1.78 0.00 56 1009.9
20260830195022 24 253 0.0 1.6 0.00 1.78 0.00 58 1010.0
20260830194507 24 165 0.0 0.0 0.00 1.78 0.00 56 1010.2
20260830194004 24 240 0.0 1.6 0.00 1.78 0.00 56 1010.2
20260830193502 25 275 0.0 1.6 0.00 1.78 0.00 58 1010.3
20260830193003 24 256 0.0 0.0 0.00 1.78 0.00 55 1010.4
20260830192501 24 35 0.0 1.6 0.00 1.78 0.00 56 1010.6
20260830192100 24 152 0.0 3.2 0.00 1.78 0.00 61 1010.7
20260830191622 23 250 0.0 4.8 0.00 1.78 0.00 64 1010.8
20260830191042 23 20 0.0 4.8 0.00 1.78 0.00 62 1010.9
20260830190542 23 27 0.0 0.0 0.00 1.78 0.00 61 1010.9
20260830190053 23 263 0.0 0.0 0.00 1.78 0.00 65 1011.0
20260830185539 23 256 0.0 0.0 0.00 1.78 0.00 62 1011.1
20260830185038 23 286 0.0 0.0 0.00 1.78 0.00 65 1011.2
20260830184538 23 56 0.0 0.0 0.00 1.78 0.00 63 1011.3
20260830184018 23 332 0.0 1.6 0.00 1.78 0.00 62 1011.4
20260830183517 23 250 0.0 1.6 0.00 1.78 0.00 67 1011.4
20260830183016 23 249 0.0 0.0 0.00 1.78 0.00 65 1011.5
20260830182517 22 281 0.0 1.6 0.00 1.78 0.00 65 1011.7
20260830182014 22 268 0.0 1.6 0.00 1.78 0.00 65 1011.8
20260830181514 22 131 0.0 0.0 0.00 1.78 0.00 66 1011.9
20260830181058 22 76 0.0 6.4 0.00 1.78 0.00 69 1011.9
20260830180557 22 49 0.0 6.4 0.00 1.78 0.00 67 1011.9
20260830180056 22 42 0.0 4.8 0.00 1.78 0.00 67 1012.1
20260830175553 22 288 0.0 4.8 0.00 1.78 0.00 69 1012.1
20260830175052 22 56 0.0 0.0 0.00 1.78 0.00 71 1012.1
20260830174554 21 53 0.0 1.6 0.00 1.78 0.00 69 1012.2
20260830174038 21 66 0.0 0.0 0.00 1.78 0.00 72 1012.3
20260830173530 21 47 0.0 1.6 0.00 1.78 0.00 74 1012.4
20260830173030 21 70 0.0 1.6 0.00 1.78 0.00 74 1012.4
20260830172532 21 293 0.0 0.0 0.00 1.78 0.00 76 1012.5
20260830172030 21 61 0.0 0.0 0.00 1.78 0.00 76 1012.6
20260830171525 20 359 0.0 1.6 0.00 1.78 0.00 76 1012.7
20260830171007 20 37 0.0 1.6 0.00 1.78 0.00 77 1012.6
20260830170505 20 116 0.0 1.6 0.00 1.78 0.00 80 1012.8
20260830170005 20 59 0.0 3.2 0.00 1.78 0.00 78 1012.8
20260830165503 20 64 0.0 3.2 0.00 1.78 0.00 83 1012.9
20260830165004 19 63 0.0 1.6 0.00 1.78 0.00 82 1012.9
20260830164600 19 65 0.0 1.6 0.00 1.78 0.00 82 1013.0
20260830164047 19 65 0.0 0.0 0.00 1.78 0.00 84 1013.1
20260830163546 18 61 0.0 0.0 0.00 1.78 0.00 85 1013.2
20260830163044 18 57 0.0 0.0 0.00 1.78 0.00 85 1013.3
20260830162542 18 138 0.0 0.0 0.00 1.78 0.00 88 1013.3
20260830162045 17 46 0.0 0.0 0.00 1.78 0.00 87 1013.3
20260830161543 17 105 0.0 0.0 0.00 1.78 0.00 89 1013.4
20260830161039 17 66 0.0 0.0 0.00 1.78 0.00 88 1013.6
20260830160538 17 63 0.0 0.0 0.00 1.78 0.00 89 1013.5
20260830160042 17 44 0.0 0.0 0.00 1.78 0.00 90 1013.5
20260830155537 17 255 0.0 0.0 0.00 1.78 0.00 92 1013.5
20260830155036 16 255 0.0 0.0 0.00 1.78 0.00 93 1013.6
20260830154537 16 255 0.0 0.0 0.00 1.78 0.00 93 1013.7
20260830154034 16 254 0.0 0.0 0.00 1.78 0.00 94 1013.7
20260830153531 16 5 0.0 0.0 0.00 1.78 0.00 96 1013.7
20260830153033 16 5 0.0 0.0 0.00 1.78 0.00 97 1013.7
20260830152533 16 10 0.0 0.0 0.00 1.78 0.00 99 1013.7
20260830152031 15 10 0.0 0.0 0.00 1.78 0.00 99 1013.8
20260830151530 15 259 0.0 0.0 0.00 1.78 0.00 99 1013.8
20260830151132 15 259 0.0 0.0 0.00 1.78 0.00 100 1013.9
20260830150529 15 259 0.0 0.0 0.00 1.78 0.00 100 1013.8
20260830150029 15 259 0.0 0.0 0.00 1.78 0.00 100 1013.7
20260830145531 15 250 0.0 0.0 0.00 1.78 0.00 100 1013.8
20260830145028 15 11 0.0 0.0 0.00 1.78 0.00 100 1013.9
20260830144530 15 8 0.0 0.0 0.00 1.78 0.00 100 1013.9
20260830144011 15 72 0.0 0.0 0.00 1.78 0.00 100 1013.9
20260830143511 14 72 0.0 0.0 0.00 1.78 0.00 100 1014.0
20260830143011 14 72 0.0 0.0 0.00 1.78 0.00 100 1014.0
20260830142511 14 72 0.0 0.0 0.00 1.78 0.00 100 1014.0
20260830142011 14 72 0.0 0.0 0.00 1.78 0.00 100 1014.0
20260830141515 14 72 0.0 0.0 0.00 1.78 0.00 100 1014.0
20260830141052 13 72 0.0 0.0 0.00 1.78 0.00 100 1014.2
20260830140552 13 72 0.0 0.0 0.00 1.78 0.00 100 1014.1
20260830140101 13 72 0.0 0.0 0.00 1.78 0.00 100 1014.1
20260830135653 13 72 0.0 0.0 0.00 1.78 0.00 100 1014.1
20260830135052 13 72 0.0 0.0 0.00 1.78 0.00 100 1014.1
20260830134551 13 72 0.0 0.0 0.00 1.78 0.00 100 1014.2
20260830133013 13 72 0.0 0.0 0.00 1.78 1.78 100 1014.0
20260830132515 13 72 0.0 0.0 0.00 1.78 1.78 100 1014.0
20260830132013 13 72 0.0 0.0 0.00 1.78 1.78 100 1013.9
20260830131557 13 72 0.0 0.0 0.00 1.78 1.78 100 1013.9
20260830131054 13 72 0.0 0.0 0.00 1.78 1.78 1013.7
20260830130553 -17 0.0 0.0 0.00 1.78 1.78 1013.7
20260830130100 -17 0.0 0.0 0.00 1.78 1.78 1013.5
20260830125550 -17 0.0 0.0 0.00 1.78 1.78 1013.4
20260830125047 -17 0.0 0.0 0.00 1.78 1.78 1013.5
20260830124532 -17 0.0 0.0 0.00 1.78 1.78 1013.3
20260830124029 -17 0.0 0.0 0.00 1.78 1.78 1013.3
20260830123528 -17 0.0 0.0 0.00 1.78 1.78 1013.2
20260830123029 -17 0.0 0.0 0.00 1.78 1.78 1013.2
20260830122526 -17 0.0 0.0 0.00 1.78 1.78 1013.2
20260830122023 -17 0.0 0.0 0.00 1.78 1.78 1013.0
20260830121522 -17 0.0 0.0 0.00 1.78 1.78 1013.0
20260830121021 -17 0.0 0.0 0.00 1.78 1.78 1013.0
20260830120519 -17 0.0 0.0 0.00 1.78 1.78 1013.1
20260830120018 -17 0.0 0.0 0.00 1.78 1.78 1013.0
20260830115517 -17 0.0 0.0 0.00 1.78 1.78 1013.0
20260830115014 -17 0.0 0.0 0.00 1.78 1.78 1012.9
20260830114517 -17 0.0 0.0 0.00 1.78 1.78 1013.0
20260830114013 -17 0.0 0.0 0.00 1.78 1.78 1012.9
20260830113515 -17 0.0 0.0 0.00 1.78 1.78 1012.9
20260830113016 -17 0.0 0.0 0.00 1.78 1.78 1012.8
20260830112512 -17 0.0 0.0 0.00 1.78 1.78 1012.7
20260830111507 -17 0.0 0.0 0.00 1.78 1.78 1012.7
20260830111006 -17 0.0 0.0 0.00 1.78 1.78 1012.6
20260830110504 -17 0.0 0.0 0.00 1.78 1.78 1012.6
20260830110003 -17 0.0 0.0 0.00 1.78 1.78 1012.5
20260830105501 -17 0.0 0.0 0.00 1.78 1.78 1012.5
20260830105059 -17 0.0 0.0 0.00 1.78 1.78 1012.4
20260830104558 -17 0.0 0.0 0.00 1.78 1.78 1012.4
20260830104058 -17 0.0 0.0 0.00 1.78 1.78 1012.4
20260830103554 -17 0.0 0.0 0.00 1.78 1.78 1012.3
20260830103057 -17 0.0 0.0 0.00 1.78 1.78 1012.3
20260830102553 -17 0.0 0.0 0.00 1.78 1.78 1012.3
20260830101554 -17 0.0 0.0 0.00 1.78 1.78 1012.2
20260830101051 -17 0.0 0.0 0.00 1.78 1.78 1012.2
20260830100550 -17 0.0 0.0 0.00 1.78 1.78 1012.1
20260830100048 -17 0.0 0.0 0.00 1.78 1.78 1012.1
20260830095548 -17 0.0 0.0 0.00 1.78 1.78 1012.1
20260830095046 12 72 0.0 0.0 0.00 1.78 1.78 99 1012.1
20260830094548 12 72 0.0 0.0 0.00 1.78 1.78 99 1012.0
20260830094046 13 72 0.0 0.0 0.00 1.78 1.78 99 1012.0
20260830093545 13 72 0.0 0.0 0.00 1.78 1.78 99 1012.0
20260830093044 13 72 0.0 0.0 0.00 1.78 1.78 99 1012.0
20260830092544 13 72 0.0 0.0 0.00 1.78 1.78 99 1012.1
20260830091508 13 72 0.0 0.0 0.00 1.78 1.78 99 1012.0
20260830091007 13 72 0.0 0.0 0.00 1.78 1.78 99 1012.0
20260830090502 13 72 0.0 0.0 0.00 1.78 1.78 99 1012.0
20260830090002 13 72 0.0 0.0 0.00 1.78 1.78 99 1012.1
20260830085502 13 72 0.0 0.0 0.00 1.78 1.78 99 1012.1